Orbital elements of FENGYUN 1C DEB
| Launched | 9 May 1999 |
| Flight ended | – |
| Launch site | Taiyuan Space Center, PRC |
| Owner | People's Republic of China |
| NORAD ID | 31085 |
| Date fetched |
Epoch osculation |
Inc. [°] |
Ecc. | RA asc node [hr] |
Arg Peri. [°] |
Mean anom [°] |
Mean motion [rev/day] |
Abs. mag |
| Date fetched |
Epoch osculation |
Inc. [°] |
Ecc. | RA asc node [hr] |
Arg Peri. [°] |
Mean anom [°] |
Mean motion [rev/day] |
Abs. mag |
| 2026 May 07 17:58 | 2026 May 05 01:55:18 | 98.9751 | 0.00862 | 22.3666 | 321.4813 | 196.3088 | 14.30403 | – |
| 2026 May 06 17:57 | 2026 May 05 01:55:18 | 98.9751 | 0.00862 | 22.3666 | 321.4813 | 196.3088 | 14.30403 | – |
| 2026 May 05 17:57 | 2026 May 05 01:55:18 | 98.9751 | 0.00862 | 22.3666 | 321.4813 | 196.3088 | 14.30403 | – |
| 2026 May 04 17:57 | 2026 Apr 30 07:51:30 | 98.9760 | 0.00865 | 22.0398 | 335.3395 | 196.3088 | 14.30403 | – |
| 2026 May 03 17:57 | 2026 Apr 30 07:51:30 | 98.9760 | 0.00865 | 22.0398 | 335.3395 | 196.3088 | 14.30403 | – |
| 2026 May 02 17:57 | 2026 Apr 30 07:51:30 | 98.9760 | 0.00865 | 22.0398 | 335.3395 | 196.3088 | 14.30403 | – |
| 2026 May 01 17:56 | 2026 Apr 30 07:51:30 | 98.9760 | 0.00865 | 22.0398 | 335.3395 | 196.3088 | 14.30403 | – |
| 2026 Apr 30 17:56 | 2026 Apr 30 07:51:30 | 98.9760 | 0.00865 | 22.0398 | 335.3395 | 196.3088 | 14.30403 | – |
| 2026 Apr 29 17:57 | 2026 Apr 23 01:09:47 | 98.9768 | 0.00868 | 21.5392 | 356.5504 | 196.3088 | 14.30403 | – |
| 2026 Apr 28 17:56 | 2026 Apr 23 01:09:47 | 98.9768 | 0.00868 | 21.5392 | 356.5504 | 196.3088 | 14.30403 | – |
| 2026 Apr 27 17:58 | 2026 Apr 23 01:09:47 | 98.9768 | 0.00868 | 21.5392 | 356.5504 | 196.3088 | 14.30403 | – |
| 2026 Apr 26 17:58 | 2026 Apr 23 01:09:47 | 98.9768 | 0.00868 | 21.5392 | 356.5504 | 196.3088 | 14.30403 | – |
| 2026 Apr 25 17:58 | 2026 Apr 23 01:09:47 | 98.9768 | 0.00868 | 21.5392 | 356.5504 | 196.3088 | 14.30403 | – |
| 2026 Apr 24 17:59 | 2026 Apr 23 01:09:47 | 98.9768 | 0.00868 | 21.5392 | 356.5504 | 196.3088 | 14.30403 | – |
| 2026 Apr 23 17:57 | 2026 Apr 19 01:26:53 | 98.9774 | 0.00871 | 21.2649 | 8.1327 | 196.3088 | 14.30403 | – |
| 2026 Apr 22 17:57 | 2026 Apr 19 01:26:53 | 98.9774 | 0.00871 | 21.2649 | 8.1327 | 196.3088 | 14.30403 | – |
| 2026 Apr 21 17:57 | 2026 Apr 19 01:26:53 | 98.9774 | 0.00871 | 21.2649 | 8.1327 | 196.3088 | 14.30403 | – |
| 2026 Apr 20 17:57 | 2026 Apr 19 01:26:53 | 98.9774 | 0.00871 | 21.2649 | 8.1327 | 196.3088 | 14.30403 | – |
| 2026 Apr 19 17:58 | 2026 Apr 19 01:26:53 | 98.9774 | 0.00871 | 21.2649 | 8.1327 | 196.3088 | 14.30403 | – |
| 2026 Apr 18 17:56 | 2026 Apr 12 12:45:06 | 98.9783 | 0.00874 | 20.8158 | 27.0215 | 196.3088 | 14.30403 | – |
| 2026 Apr 16 17:57 | 2026 Apr 12 12:45:06 | 98.9783 | 0.00874 | 20.8158 | 27.0215 | 196.3088 | 14.30403 | – |
| 2026 Apr 14 17:57 | 2026 Apr 12 12:45:06 | 98.9783 | 0.00874 | 20.8158 | 27.0215 | 196.3088 | 14.30403 | – |
| 2026 Apr 13 17:57 | 2026 Apr 12 12:45:06 | 98.9783 | 0.00874 | 20.8158 | 27.0215 | 196.3088 | 14.30403 | – |
| 2026 Apr 12 17:57 | 2026 Apr 07 20:12:59 | 98.9788 | 0.00876 | 20.4932 | 40.5428 | 196.3088 | 14.30403 | – |
| 2026 Apr 11 17:57 | 2026 Apr 07 20:12:59 | 98.9788 | 0.00876 | 20.4932 | 40.5428 | 196.3088 | 14.30403 | – |
| 2026 Apr 10 17:58 | 2026 Apr 07 20:12:59 | 98.9788 | 0.00876 | 20.4932 | 40.5428 | 196.3088 | 14.30403 | – |